Time,TemperatureF,DewpointF,PressureIn,WindDirection,WindDirectionDegrees,WindSpeedMPH,WindSpeedGustMPH,Humidity,HourlyPrecipIn,Conditions,Clouds,dailyrainin,SoftwareType,DateUTC
2013-05-03 00:00:00,41.9,38.3,30.23,NW,315,6.0,16.0,87,0.00,,---,0.00,VWS V14.01,2013-05-03 05:00:00,
2013-05-03 00:30:00,41.8,37.9,30.22,NW,315,5.0,15.0,86,0.00,,---,0.00,VWS V14.01,2013-05-03 05:30:00,
2013-05-03 01:00:00,41.6,37.4,30.22,NW,315,6.0,13.0,85,0.00,,---,0.00,VWS V14.01,2013-05-03 06:00:00,
2013-05-03 01:30:00,40.8,37.5,30.21,NW,315,5.0,14.0,88,0.00,,---,0.00,VWS V14.01,2013-05-03 06:30:00,
2013-05-03 02:00:00,40.0,37.3,30.21,NW,315,5.0,11.0,90,0.01,,---,0.01,VWS V14.01,2013-05-03 07:00:00,
2013-05-03 02:55:00,40.0,37.3,30.21,NW,315,5.0,11.0,90,0.01,,---,0.01,VWS V14.01,2013-05-03 07:55:00,
2013-05-03 03:00:00,40.4,36.8,30.19,NNW,330,7.0,12.0,87,0.01,,---,0.01,VWS V14.01,2013-05-03 08:00:00,
2013-05-03 03:05:00,40.4,36.8,30.19,NW,316,5.0,10.0,87,0.00,,---,0.01,VWS V14.01,2013-05-03 08:05:00,
2013-05-03 03:10:00,40.4,36.5,30.19,NW,322,4.0,11.0,86,0.00,,---,0.01,VWS V14.01,2013-05-03 08:10:00,
2013-05-03 03:15:00,40.6,36.8,30.19,NW,307,4.0,11.0,86,0.00,,---,0.01,VWS V14.01,2013-05-03 08:15:00,
2013-05-03 03:20:00,40.6,36.5,30.19,NW,305,6.0,11.0,85,0.00,,---,0.01,VWS V14.01,2013-05-03 08:20:00,
2013-05-03 03:25:00,40.6,36.5,30.19,NW,304,3.0,11.0,85,0.00,,---,0.01,VWS V14.01,2013-05-03 08:25:00,
2013-05-03 03:30:00,40.6,36.5,30.19,NNW,330,3.0,12.0,85,0.00,,---,0.01,VWS V14.01,2013-05-03 08:30:00,
2013-05-03 03:35:00,40.7,36.2,30.20,NNW,333,4.0,10.0,84,0.00,,---,0.01,VWS V14.01,2013-05-03 08:35:00,
2013-05-03 03:40:00,40.8,36.3,30.19,WNW,300,4.0,10.0,84,0.00,,---,0.01,VWS V14.01,2013-05-03 08:40:00,
2013-05-03 03:45:00,40.8,36.7,30.20,WNW,300,4.0,10.0,85,0.00,,---,0.01,VWS V14.01,2013-05-03 08:45:00,
2013-05-03 03:50:00,40.8,36.7,30.20,NW,326,4.0,10.0,85,0.00,,---,0.01,VWS V14.01,2013-05-03 08:50:00,
2013-05-03 03:55:00,40.8,36.7,30.19,NW,308,1.0,10.0,85,0.00,,---,0.01,VWS V14.01,2013-05-03 08:55:00,
2013-05-03 04:00:00,40.9,36.5,30.19,WNW,302,3.0,10.0,84,0.00,,---,0.01,VWS V14.01,2013-05-03 09:00:00,
2013-05-03 04:05:00,40.9,36.5,30.19,NW,318,5.0,10.0,84,0.00,,---,0.01,VWS V14.01,2013-05-03 09:05:00,
2013-05-03 04:10:00,40.9,36.5,30.19,NNW,338,6.0,10.0,84,0.00,,---,0.01,VWS V14.01,2013-05-03 09:10:00,
2013-05-03 04:15:00,41.0,36.5,30.19,NW,308,4.0,10.0,84,0.00,,---,0.01,VWS V14.01,2013-05-03 09:15:00,
2013-05-03 04:20:00,41.0,36.5,30.19,NW,323,3.0,10.0,84,0.00,,---,0.01,VWS V14.01,2013-05-03 09:20:00,
2013-05-03 04:25:00,41.0,36.5,30.19,NW,307,2.0,10.0,84,0.00,,---,0.01,VWS V14.01,2013-05-03 09:25:00,
2013-05-03 04:30:00,40.9,36.1,30.19,NNW,342,5.0,13.0,83,0.00,,---,0.01,VWS V14.01,2013-05-03 09:30:00,
2013-05-03 04:35:00,40.9,36.1,30.19,NW,308,6.0,8.0,83,0.00,,---,0.01,VWS V14.01,2013-05-03 09:35:00,
2013-05-03 04:40:00,40.9,36.5,30.19,WNW,300,4.0,8.0,84,0.00,,---,0.01,VWS V14.01,2013-05-03 09:40:00,
2013-05-03 04:45:00,40.9,36.1,30.19,WNW,294,6.0,9.0,83,0.00,,---,0.01,VWS V14.01,2013-05-03 09:45:00,
2013-05-03 04:50:00,40.9,36.1,30.19,West,276,2.0,11.0,83,0.00,,---,0.01,VWS V14.01,2013-05-03 09:50:00,
2013-05-03 04:55:00,41.0,36.2,30.19,NW,304,2.0,12.0,83,0.00,,---,0.01,VWS V14.01,2013-05-03 09:55:00,
2013-05-03 05:00:00,41.1,36.0,30.19,NW,309,4.0,12.0,82,0.00,,---,0.01,VWS V14.01,2013-05-03 10:00:00,
2013-05-03 05:05:00,41.2,36.1,30.19,NNW,333,6.0,10.0,82,0.00,,---,0.01,VWS V14.01,2013-05-03 10:05:00,
2013-05-03 05:10:00,41.2,36.1,30.19,NNW,333,7.0,10.0,82,0.00,,---,0.01,VWS V14.01,2013-05-03 10:10:00,
2013-05-03 05:15:00,41.2,36.1,30.19,NW,318,2.0,10.0,82,0.00,,---,0.01,VWS V14.01,2013-05-03 10:15:00,
2013-05-03 05:20:00,41.2,36.1,30.19,ENE,59,1.0,10.0,82,0.00,,---,0.01,VWS V14.01,2013-05-03 10:20:00,
2013-05-03 05:25:00,41.3,36.5,30.19,NW,313,4.0,10.0,83,0.00,,---,0.01,VWS V14.01,2013-05-03 10:25:00,
2013-05-03 05:30:00,41.3,36.5,30.19,NW,323,6.0,12.0,83,0.00,,---,0.01,VWS V14.01,2013-05-03 10:30:00,
2013-05-03 05:35:00,41.4,36.6,30.19,NNW,336,9.0,9.0,83,0.00,,---,0.01,VWS V14.01,2013-05-03 10:35:00,
2013-05-03 05:40:00,41.5,36.4,30.20,NW,310,8.0,11.0,82,0.00,,---,0.01,VWS V14.01,2013-05-03 10:40:00,
2013-05-03 05:45:00,41.6,36.5,30.19,North,359,4.0,11.0,82,0.00,,---,0.01,VWS V14.01,2013-05-03 10:45:00,
2013-05-03 05:50:00,41.6,36.5,30.19,NW,326,7.0,11.0,82,0.00,,---,0.01,VWS V14.01,2013-05-03 10:50:00,
2013-05-03 05:55:00,41.7,36.3,30.19,NNW,340,4.0,15.0,81,0.00,,---,0.01,VWS V14.01,2013-05-03 10:55:00,
2013-05-03 06:00:00,41.6,36.2,30.19,NW,307,4.0,15.0,81,0.00,,---,0.01,VWS V14.01,2013-05-03 11:00:00,
2013-05-03 06:05:00,41.7,36.6,30.19,NW,320,4.0,12.0,82,0.00,,---,0.01,VWS V14.01,2013-05-03 11:05:00,
2013-05-03 06:10:00,41.6,36.2,30.19,WNW,303,4.0,12.0,81,0.00,,---,0.01,VWS V14.01,2013-05-03 11:10:00,
2013-05-03 06:15:00,41.6,36.2,30.19,NNW,335,5.0,12.0,81,0.00,,---,0.01,VWS V14.01,2013-05-03 11:15:00,
2013-05-03 06:20:00,41.6,36.2,30.19,NNW,328,4.0,12.0,81,0.00,,---,0.01,VWS V14.01,2013-05-03 11:20:00,
2013-05-03 06:25:00,41.6,36.2,30.20,NW,326,5.0,12.0,81,0.00,,---,0.01,VWS V14.01,2013-05-03 11:25:00,
2013-05-03 06:30:00,41.6,36.5,30.20,NW,308,2.0,12.0,82,0.00,,---,0.01,VWS V14.01,2013-05-03 11:30:00,
2013-05-03 06:35:00,41.6,36.2,30.20,WNW,297,4.0,8.0,81,0.00,,---,0.01,VWS V14.01,2013-05-03 11:35:00,
2013-05-03 06:40:00,41.5,36.1,30.20,North,349,3.0,12.0,81,0.00,,---,0.01,VWS V14.01,2013-05-03 11:40:00,
2013-05-03 06:45:00,41.5,36.4,30.20,NW,326,8.0,12.0,82,0.00,,---,0.01,VWS V14.01,2013-05-03 11:45:00,
2013-05-03 06:50:00,41.5,36.1,30.20,NNW,333,4.0,12.0,81,0.00,,---,0.01,VWS V14.01,2013-05-03 11:50:00,
2013-05-03 06:55:00,41.5,36.1,30.20,NW,312,2.0,12.0,81,0.00,,---,0.01,VWS V14.01,2013-05-03 11:55:00,
2013-05-03 07:00:00,41.6,36.2,30.20,NNW,329,7.0,12.0,81,0.00,,---,0.01,VWS V14.01,2013-05-03 12:00:00,
2013-05-03 07:05:00,41.6,36.2,30.21,NW,307,3.0,7.0,81,0.00,,---,0.01,VWS V14.01,2013-05-03 12:05:00,
2013-05-03 07:10:00,41.6,36.2,30.21,NNW,327,4.0,9.0,81,0.00,,---,0.01,VWS V14.01,2013-05-03 12:10:00,
2013-05-03 07:15:00,41.6,36.5,30.21,NW,318,3.0,9.0,82,0.00,,---,0.01,VWS V14.01,2013-05-03 12:15:00,
2013-05-03 07:20:00,41.6,36.5,30.21,NW,304,3.0,10.0,82,0.00,,---,0.01,VWS V14.01,2013-05-03 12:20:00,
2013-05-03 07:25:00,41.6,36.2,30.21,NW,314,3.0,11.0,81,0.00,,---,0.01,VWS V14.01,2013-05-03 12:25:00,
2013-05-03 07:30:00,41.6,36.2,30.21,NW,311,4.0,11.0,81,0.00,,---,0.01,VWS V14.01,2013-05-03 12:30:00,
2013-05-03 07:35:00,41.5,35.8,30.21,WNW,303,7.0,11.0,80,0.00,,---,0.01,VWS V14.01,2013-05-03 12:35:00,
2013-05-03 07:40:00,41.4,35.7,30.21,WNW,298,5.0,11.0,80,0.00,,---,0.01,VWS V14.01,2013-05-03 12:40:00,
2013-05-03 07:45:00,41.3,35.6,30.22,NW,308,8.0,12.0,80,0.00,,---,0.01,VWS V14.01,2013-05-03 12:45:00,
2013-05-03 07:50:00,41.2,35.5,30.21,NW,326,6.0,14.0,80,0.00,,---,0.01,VWS V14.01,2013-05-03 12:50:00,
2013-05-03 07:55:00,41.1,35.4,30.22,NW,309,11.0,14.0,80,0.00,,---,0.01,VWS V14.01,2013-05-03 12:55:00,
2013-05-03 08:00:00,41.1,35.7,30.22,NW,315,4.0,14.0,81,0.00,,---,0.01,VWS V14.01,2013-05-03 13:00:00,
2013-05-03 08:05:00,41.2,35.8,30.22,NNW,341,1.0,11.0,81,0.00,,---,0.01,VWS V14.01,2013-05-03 13:05:00,
2013-05-03 08:10:00,41.4,36.0,30.22,NNW,331,5.0,11.0,81,0.00,,---,0.01,VWS V14.01,2013-05-03 13:10:00,
2013-05-03 08:15:00,41.5,35.8,30.22,NW,311,3.0,12.0,80,0.00,,---,0.01,VWS V14.01,2013-05-03 13:15:00,
2013-05-03 08:20:00,41.7,36.0,30.22,NW,305,6.0,14.0,80,0.00,,---,0.01,VWS V14.01,2013-05-03 13:20:00,
2013-05-03 08:25:00,41.9,35.5,30.22,NW,307,9.0,14.0,78,0.00,,---,0.01,VWS V14.01,2013-05-03 13:25:00,
2013-05-03 08:30:00,42.1,36.1,30.22,WNW,301,2.0,14.0,79,0.00,,---,0.01,VWS V14.01,2013-05-03 13:30:00,
2013-05-03 08:35:00,42.5,36.1,30.22,NW,326,4.0,9.0,78,0.00,,---,0.01,VWS V14.01,2013-05-03 13:35:00,
2013-05-03 08:40:00,42.7,36.3,30.22,NW,309,5.0,9.0,78,0.00,,---,0.01,VWS V14.01,2013-05-03 13:40:00,
2013-05-03 08:45:00,43.0,36.3,30.22,NW,304,6.0,9.0,77,0.00,,---,0.01,VWS V14.01,2013-05-03 13:45:00,
2013-05-03 08:50:00,43.3,36.3,30.22,WNW,287,6.0,11.0,76,0.00,,---,0.01,VWS V14.01,2013-05-03 13:50:00,
2013-05-03 08:55:00,43.6,36.2,30.22,WNW,300,3.0,11.0,75,0.00,,---,0.01,VWS V14.01,2013-05-03 13:55:00,
2013-05-03 09:00:00,44.1,37.0,30.22,WNW,300,3.0,11.0,76,0.00,,---,0.01,VWS V14.01,2013-05-03 14:00:00,
2013-05-03 09:05:00,44.5,36.7,30.21,NW,309,5.0,11.0,74,0.00,,---,0.01,VWS V14.01,2013-05-03 14:05:00,
2013-05-03 09:10:00,44.7,36.2,30.21,NNW,333,4.0,11.0,72,0.00,,---,0.01,VWS V14.01,2013-05-03 14:10:00,
2013-05-03 09:15:00,45.0,36.9,30.21,NW,310,3.0,11.0,73,0.00,,---,0.01,VWS V14.01,2013-05-03 14:15:00,
2013-05-03 09:20:00,45.4,36.9,30.21,NW,310,5.0,19.0,72,0.00,,---,0.01,VWS V14.01,2013-05-03 14:20:00,
2013-05-03 09:25:00,45.9,36.7,30.21,NW,319,9.0,19.0,70,0.00,,---,0.01,VWS V14.01,2013-05-03 14:25:00,
2013-05-03 09:30:00,46.1,36.9,30.21,NW,307,3.0,19.0,70,0.00,,---,0.01,VWS V14.01,2013-05-03 14:30:00,
2013-05-03 09:35:00,46.4,36.8,30.21,NW,304,7.0,11.0,69,0.00,,---,0.01,VWS V14.01,2013-05-03 14:35:00,
2013-05-03 09:40:00,47.0,37.7,30.21,NE,46,1.0,11.0,70,0.00,,---,0.01,VWS V14.01,2013-05-03 14:40:00,
2013-05-03 09:45:00,47.5,37.1,30.21,NW,315,3.0,11.0,67,0.00,,---,0.01,VWS V14.01,2013-05-03 14:45:00,
2013-05-03 09:50:00,47.7,36.9,30.21,WNW,294,6.0,11.0,66,0.00,,---,0.01,VWS V14.01,2013-05-03 14:50:00,
2013-05-03 09:55:00,48.4,38.3,30.21,NNW,330,1.0,11.0,68,0.00,,---,0.01,VWS V14.01,2013-05-03 14:55:00,
2013-05-03 10:00:00,48.7,37.1,30.21,NNW,329,5.0,12.0,64,0.00,,---,0.01,VWS V14.01,2013-05-03 15:00:00,
2013-05-03 10:05:00,48.6,36.6,30.21,NW,320,8.0,15.0,63,0.00,,---,0.01,VWS V14.01,2013-05-03 15:05:00,
2013-05-03 10:10:00,48.8,36.8,30.21,NNW,335,11.0,15.0,63,0.00,,---,0.01,VWS V14.01,2013-05-03 15:10:00,
2013-05-03 10:15:00,49.1,36.7,30.21,NW,307,6.0,15.0,62,0.00,,---,0.01,VWS V14.01,2013-05-03 15:15:00,
2013-05-03 10:20:00,49.3,36.8,30.21,WNW,300,7.0,15.0,62,0.00,,---,0.01,VWS V14.01,2013-05-03 15:20:00,
2013-05-03 10:25:00,49.5,37.0,30.21,NW,310,5.0,15.0,62,0.00,,---,0.01,VWS V14.01,2013-05-03 15:25:00,
2013-05-03 10:30:00,50.3,37.8,30.21,NW,307,6.0,15.0,62,0.00,,---,0.01,VWS V14.01,2013-05-03 15:30:00,
2013-05-03 10:35:00,50.6,37.2,30.21,NNW,333,7.0,9.0,60,0.00,,---,0.01,VWS V14.01,2013-05-03 15:35:00,
2013-05-03 10:40:00,50.8,36.1,30.21,NW,320,7.0,12.0,57,0.00,,---,0.01,VWS V14.01,2013-05-03 15:40:00,
2013-05-03 10:45:00,50.8,35.7,30.20,NW,314,7.0,15.0,56,0.00,,---,0.01,VWS V14.01,2013-05-03 15:45:00,
2013-05-03 10:50:00,51.4,36.7,30.21,NW,319,4.0,15.0,57,0.00,,---,0.01,VWS V14.01,2013-05-03 15:50:00,
2013-05-03 10:55:00,51.7,36.1,30.20,NNW,333,2.0,15.0,55,0.00,,---,0.01,VWS V14.01,2013-05-03 15:55:00,
2013-05-03 11:00:00,51.9,34.8,30.20,WNW,303,6.0,15.0,52,0.00,,---,0.01,VWS V14.01,2013-05-03 16:00:00,
2013-05-03 11:05:00,52.1,33.0,30.20,NW,316,4.0,15.0,48,0.00,,---,0.01,VWS V14.01,2013-05-03 16:05:00,
2013-05-03 11:10:00,52.5,34.4,30.20,NW,313,2.0,15.0,50,0.00,,---,0.01,VWS V14.01,2013-05-03 16:10:00,
2013-05-03 11:15:00,53.2,34.5,30.19,NW,316,4.0,15.0,49,0.00,,---,0.01,VWS V14.01,2013-05-03 16:15:00,
2013-05-03 11:20:00,53.5,34.8,30.20,NW,319,5.0,15.0,49,0.00,,---,0.01,VWS V14.01,2013-05-03 16:20:00,
2013-05-03 11:25:00,54.1,35.4,30.20,NW,319,4.0,15.0,49,0.00,,---,0.01,VWS V14.01,2013-05-03 16:25:00,
2013-05-03 11:30:00,54.1,34.3,30.20,North,349,10.0,15.0,47,0.00,,---,0.01,VWS V14.01,2013-05-03 16:30:00,
2013-05-03 11:35:00,54.0,33.2,30.19,NW,309,9.0,14.0,45,0.00,,---,0.01,VWS V14.01,2013-05-03 16:35:00,
2013-05-03 11:40:00,54.0,32.6,30.20,NW,311,8.0,15.0,44,0.00,,---,0.01,VWS V14.01,2013-05-03 16:40:00,
2013-05-03 11:45:00,54.3,32.3,30.19,NW,311,9.0,15.0,43,0.00,,---,0.01,VWS V14.01,2013-05-03 16:45:00,
2013-05-03 11:50:00,54.6,32.0,30.19,NW,311,4.0,15.0,42,0.00,,---,0.01,VWS V14.01,2013-05-03 16:50:00,
2013-05-03 11:55:00,55.1,33.0,30.19,NW,326,2.0,16.0,43,0.00,,---,0.01,VWS V14.01,2013-05-03 16:55:00,
2013-05-03 12:00:00,55.5,34.0,30.19,NW,324,3.0,16.0,44,0.00,,---,0.01,VWS V14.01,2013-05-03 17:00:00,
2013-05-03 12:05:00,55.6,32.3,30.18,East,101,6.0,13.0,41,0.00,,---,0.01,VWS V14.01,2013-05-03 17:05:00,
2013-05-03 12:10:00,55.9,34.9,30.18,NNW,347,5.0,14.0,45,0.00,,---,0.01,VWS V14.01,2013-05-03 17:10:00,
2013-05-03 12:15:00,56.8,35.1,30.18,NW,315,7.0,14.0,44,0.00,,---,0.01,VWS V14.01,2013-05-03 17:15:00,
2013-05-03 12:20:00,56.8,32.8,30.17,WNW,297,9.0,15.0,40,0.00,,---,0.01,VWS V14.01,2013-05-03 17:20:00,
2013-05-03 12:25:00,57.0,33.5,30.17,West,262,4.0,15.0,41,0.00,,---,0.01,VWS V14.01,2013-05-03 17:25:00,
2013-05-03 12:30:00,57.2,33.1,30.17,NNW,345,11.0,15.0,40,0.00,,---,0.01,VWS V14.01,2013-05-03 17:30:00,
2013-05-03 12:35:00,57.0,32.3,30.17,NW,316,7.0,21.0,39,0.00,,---,0.01,VWS V14.01,2013-05-03 17:35:00,
2013-05-03 12:40:00,57.2,31.8,30.16,West,280,10.0,21.0,38,0.00,,---,0.01,VWS V14.01,2013-05-03 17:40:00,
2013-05-03 12:45:00,57.4,32.7,30.16,NW,307,7.0,21.0,39,0.00,,---,0.01,VWS V14.01,2013-05-03 17:45:00,
2013-05-03 12:50:00,57.5,32.8,30.15,NNW,329,1.0,21.0,39,0.00,,---,0.01,VWS V14.01,2013-05-03 17:50:00,
2013-05-03 12:55:00,58.4,32.2,30.15,NW,309,9.0,21.0,37,0.00,,---,0.01,VWS V14.01,2013-05-03 17:55:00,
2013-05-03 13:00:00,58.4,32.9,30.15,NNE,21,9.0,21.0,38,0.00,,---,0.01,VWS V14.01,2013-05-03 18:00:00,
2013-05-03 13:05:00,58.5,31.7,30.15,NW,316,5.0,23.0,36,0.00,,---,0.01,VWS V14.01,2013-05-03 18:05:00,
2013-05-03 13:10:00,58.5,33.0,30.14,NNW,327,8.0,23.0,38,0.00,,---,0.01,VWS V14.01,2013-05-03 18:10:00,
2013-05-03 13:15:00,58.6,33.1,30.14,WNW,297,12.0,23.0,38,0.00,,---,0.01,VWS V14.01,2013-05-03 18:15:00,
2013-05-03 13:20:00,59.2,33.0,30.14,NE,45,3.0,23.0,37,0.00,,---,0.01,VWS V14.01,2013-05-03 18:20:00,
2013-05-03 13:25:00,59.6,34.0,30.13,NW,309,3.0,23.0,38,0.00,,---,0.01,VWS V14.01,2013-05-03 18:25:00,
2013-05-03 13:30:00,60.2,33.8,30.13,NW,304,7.0,23.0,37,0.00,,---,0.01,VWS V14.01,2013-05-03 18:30:00,
2013-05-03 13:35:00,59.9,32.2,30.13,WNW,293,5.0,16.0,35,0.00,,---,0.01,VWS V14.01,2013-05-03 18:35:00,
2013-05-03 13:40:00,60.1,35.1,30.13,NNW,342,4.0,16.0,39,0.00,,---,0.01,VWS V14.01,2013-05-03 18:40:00,
2013-05-03 13:45:00,60.8,35.7,30.13,WNW,301,11.0,16.0,39,0.00,,---,0.01,VWS V14.01,2013-05-03 18:45:00,
2013-05-03 13:50:00,60.5,33.4,30.12,NNW,342,7.0,17.0,36,0.00,,---,0.01,VWS V14.01,2013-05-03 18:50:00,
2013-05-03 13:55:00,60.9,34.5,30.12,NW,314,6.0,17.0,37,0.00,,---,0.01,VWS V14.01,2013-05-03 18:55:00,
2013-05-03 14:00:00,60.8,33.7,30.12,NW,319,5.0,17.0,36,0.00,,---,0.01,VWS V14.01,2013-05-03 19:00:00,
2013-05-03 14:05:00,60.7,33.6,30.12,NNE,18,10.0,15.0,36,0.00,,---,0.01,VWS V14.01,2013-05-03 19:05:00,
2013-05-03 14:10:00,60.8,33.0,30.11,NNW,342,7.0,15.0,35,0.00,,---,0.01,VWS V14.01,2013-05-03 19:10:00,
2013-05-03 14:15:00,61.2,34.1,30.11,NW,326,4.0,15.0,36,0.00,,---,0.01,VWS V14.01,2013-05-03 19:15:00,
2013-05-03 14:20:00,61.4,33.5,30.11,NW,311,5.0,15.0,35,0.00,,---,0.01,VWS V14.01,2013-05-03 19:20:00,
2013-05-03 14:25:00,61.4,31.3,30.11,NNW,335,9.0,18.0,32,0.00,,---,0.01,VWS V14.01,2013-05-03 19:25:00,
2013-05-03 14:30:00,61.0,31.0,30.11,NNW,329,4.0,18.0,32,0.00,,---,0.01,VWS V14.01,2013-05-03 19:30:00,
2013-05-03 14:35:00,61.6,34.4,30.10,NW,316,11.0,13.0,36,0.00,,---,0.01,VWS V14.01,2013-05-03 19:35:00,
2013-05-03 14:40:00,61.7,31.6,30.10,NNW,329,7.0,14.0,32,0.00,,---,0.01,VWS V14.01,2013-05-03 19:40:00,
2013-05-03 14:45:00,61.7,31.6,30.10,West,281,2.0,14.0,32,0.00,,---,0.01,VWS V14.01,2013-05-03 19:45:00,
2013-05-03 14:50:00,61.7,32.3,30.10,NNW,335,2.0,14.0,33,0.00,,---,0.01,VWS V14.01,2013-05-03 19:50:00,
2013-05-03 14:55:00,62.2,34.2,30.09,South,190,1.0,14.0,35,0.00,,---,0.01,VWS V14.01,2013-05-03 19:55:00,
2013-05-03 15:00:00,62.8,34.0,30.09,NW,304,8.0,16.0,34,0.00,,---,0.01,VWS V14.01,2013-05-03 20:00:00,
2013-05-03 15:05:00,62.1,30.3,30.09,NW,313,10.0,16.0,30,0.00,,---,0.01,VWS V14.01,2013-05-03 20:05:00,
2013-05-03 15:10:00,61.8,30.1,30.08,WNW,296,9.0,16.0,30,0.00,,---,0.01,VWS V14.01,2013-05-03 20:10:00,
2013-05-03 15:15:00,61.8,30.9,30.08,NNW,342,7.0,16.0,31,0.00,,---,0.01,VWS V14.01,2013-05-03 20:15:00,
2013-05-03 15:20:00,62.0,32.6,30.08,NW,304,4.0,16.0,33,0.00,,---,0.01,VWS V14.01,2013-05-03 20:20:00,
2013-05-03 15:25:00,62.6,33.1,30.08,North,352,2.0,16.0,33,0.00,,---,0.01,VWS V14.01,2013-05-03 20:25:00,
2013-05-03 15:30:00,63.0,32.7,30.08,NW,307,6.0,16.0,32,0.00,,---,0.01,VWS V14.01,2013-05-03 20:30:00,
2013-05-03 15:35:00,62.9,31.8,30.07,NW,311,2.0,12.0,31,0.00,,---,0.01,VWS V14.01,2013-05-03 20:35:00,
2013-05-03 15:40:00,62.9,31.0,30.07,NNW,333,3.0,15.0,30,0.00,,---,0.01,VWS V14.01,2013-05-03 20:40:00,
2013-05-03 15:45:00,62.5,30.7,30.07,NNW,329,4.0,16.0,30,0.00,,---,0.01,VWS V14.01,2013-05-03 20:45:00,
2013-05-03 15:50:00,62.6,29.9,30.06,NW,312,7.0,16.0,29,0.00,,---,0.01,VWS V14.01,2013-05-03 20:50:00,
2013-05-03 15:55:00,62.2,29.6,30.06,NW,304,6.0,16.0,29,0.00,,---,0.01,VWS V14.01,2013-05-03 20:55:00,
2013-05-03 16:00:00,62.0,30.2,30.06,WNW,293,7.0,16.0,30,0.00,,---,0.01,VWS V14.01,2013-05-03 21:00:00,
2013-05-03 16:05:00,62.6,29.9,30.06,NW,309,9.0,12.0,29,0.00,,---,0.01,VWS V14.01,2013-05-03 21:05:00,
2013-05-03 16:10:00,62.8,30.1,30.05,NW,319,7.0,15.0,29,0.00,,---,0.01,VWS V14.01,2013-05-03 21:10:00,
2013-05-03 16:15:00,63.0,31.9,30.05,NW,308,10.0,15.0,31,0.00,,---,0.01,VWS V14.01,2013-05-03 21:15:00,
2013-05-03 16:20:00,62.9,31.8,30.05,North,6,4.0,15.0,31,0.00,,---,0.01,VWS V14.01,2013-05-03 21:20:00,
2013-05-03 16:25:00,62.4,29.8,30.05,NW,314,7.0,15.0,29,0.00,,---,0.01,VWS V14.01,2013-05-03 21:25:00,
2013-05-03 16:30:00,62.9,32.6,30.05,NE,53,3.0,15.0,32,0.00,,---,0.01,VWS V14.01,2013-05-03 21:30:00,
2013-05-03 16:35:00,63.7,30.9,30.05,NNW,338,9.0,13.0,29,0.00,,---,0.01,VWS V14.01,2013-05-03 21:35:00,
2013-05-03 16:40:00,63.7,31.7,30.05,NW,318,7.0,13.0,30,0.00,,---,0.01,VWS V14.01,2013-05-03 21:40:00,
2013-05-03 16:45:00,63.7,32.5,30.05,NW,316,5.0,13.0,31,0.00,,---,0.01,VWS V14.01,2013-05-03 21:45:00,
2013-05-03 16:50:00,63.9,32.7,30.04,NW,311,2.0,13.0,31,0.00,,---,0.01,VWS V14.01,2013-05-03 21:50:00,
2013-05-03 16:55:00,64.3,32.2,30.04,NW,312,2.0,13.0,30,0.00,,---,0.01,VWS V14.01,2013-05-03 21:55:00,
2013-05-03 17:00:00,64.2,32.2,30.04,North,352,6.0,13.0,30,0.00,,---,0.01,VWS V14.01,2013-05-03 22:00:00,
2013-05-03 17:05:00,64.0,31.1,30.04,NW,314,11.0,13.0,29,0.00,,---,0.01,VWS V14.01,2013-05-03 22:05:00,
2013-05-03 17:10:00,63.4,28.9,30.04,NW,314,6.0,16.0,27,0.00,,---,0.01,VWS V14.01,2013-05-03 22:10:00,
2013-05-03 17:15:00,63.5,31.5,30.04,NW,323,9.0,16.0,30,0.00,,---,0.01,VWS V14.01,2013-05-03 22:15:00,
2013-05-03 17:20:00,63.3,28.8,30.04,WNW,301,8.0,16.0,27,0.00,,---,0.01,VWS V14.01,2013-05-03 22:20:00,
2013-05-03 17:25:00,63.1,31.2,30.04,WNW,301,6.0,16.0,30,0.00,,---,0.01,VWS V14.01,2013-05-03 22:25:00,
2013-05-03 17:30:00,63.2,30.4,30.04,NW,319,5.0,16.0,29,0.00,,---,0.01,VWS V14.01,2013-05-03 22:30:00,
2013-05-03 17:34:00,63.2,30.4,30.04,NW,315,3.0,10.0,29,0.00,,---,0.01,VWS V14.01,2013-05-03 22:34:00,
2013-05-03 17:39:00,63.1,29.5,30.04,NW,304,8.0,11.0,28,0.00,,---,0.01,VWS V14.01,2013-05-03 22:39:00,
2013-05-03 17:45:00,63.3,31.4,30.04,WNW,303,13.0,13.0,30,0.00,,---,0.01,VWS V14.01,2013-05-03 22:45:00,
2013-05-03 17:50:00,63.2,29.6,30.03,NW,307,7.0,14.0,28,0.00,,---,0.01,VWS V14.01,2013-05-03 22:50:00,
2013-05-03 17:55:00,63.3,28.8,30.03,WNW,303,7.0,15.0,27,0.00,,---,0.01,VWS V14.01,2013-05-03 22:55:00,
2013-05-03 18:00:00,63.4,30.6,30.03,North,354,6.0,15.0,29,0.00,,---,0.01,VWS V14.01,2013-05-03 23:00:00,
2013-05-03 18:05:00,63.6,31.6,30.03,North,352,11.0,11.0,30,0.00,,---,0.01,VWS V14.01,2013-05-03 23:05:00,
2013-05-03 18:09:00,63.4,29.8,30.03,NNW,335,6.0,13.0,28,0.00,,---,0.01,VWS V14.01,2013-05-03 23:09:00,
2013-05-03 18:14:00,63.2,29.6,30.03,NW,307,6.0,14.0,28,0.00,,---,0.01,VWS V14.01,2013-05-03 23:14:00,
2013-05-03 18:19:00,63.2,31.3,30.03,NNW,328,3.0,14.0,30,0.00,,---,0.01,VWS V14.01,2013-05-03 23:19:00,
2013-05-03 18:24:00,63.4,28.9,30.03,North,354,4.0,14.0,27,0.00,,---,0.01,VWS V14.01,2013-05-03 23:24:00,
2013-05-03 18:29:00,63.1,29.5,30.03,NW,309,4.0,14.0,28,0.00,,---,0.01,VWS V14.01,2013-05-03 23:29:00,
2013-05-03 18:34:00,62.9,29.3,30.03,NW,311,3.0,11.0,28,0.00,,---,0.01,VWS V14.01,2013-05-03 23:34:00,
2013-05-03 18:39:00,62.7,29.1,30.03,NW,308,8.0,11.0,28,0.00,,---,0.01,VWS V14.01,2013-05-03 23:39:00,
2013-05-03 18:44:00,62.6,29.1,30.03,WNW,296,6.0,11.0,28,0.00,,---,0.01,VWS V14.01,2013-05-03 23:44:00,
2013-05-03 18:49:00,62.4,29.8,30.03,NW,311,5.0,11.0,29,0.00,,---,0.01,VWS V14.01,2013-05-03 23:49:00,
2013-05-03 18:54:00,62.3,28.8,30.03,NNW,328,6.0,11.0,28,0.00,,---,0.01,VWS V14.01,2013-05-03 23:54:00,
2013-05-03 18:59:00,62.2,29.6,30.03,NW,304,3.0,11.0,29,0.00,,---,0.01,VWS V14.01,2013-05-03 23:59:00,
2013-05-03 19:04:00,62.0,29.4,30.03,WSW,249,1.0,7.0,29,0.00,,---,0.01,VWS V14.01,2013-05-04 00:04:00,
2013-05-03 19:09:00,61.8,30.1,30.03,West,278,2.0,7.0,30,0.00,,---,0.01,VWS V14.01,2013-05-04 00:09:00,
2013-05-03 19:14:00,61.6,29.1,30.03,NW,308,6.0,10.0,29,0.00,,---,0.01,VWS V14.01,2013-05-04 00:14:00,
2013-05-03 19:19:00,61.6,29.1,30.03,NW,311,4.0,10.0,29,0.00,,---,0.01,VWS V14.01,2013-05-04 00:19:00,
2013-05-03 19:24:00,61.4,29.7,30.03,West,266,1.0,10.0,30,0.00,,---,0.01,VWS V14.01,2013-05-04 00:24:00,
2013-05-03 19:29:00,61.2,28.7,30.02,WNW,301,3.0,10.0,29,0.00,,---,0.01,VWS V14.01,2013-05-04 00:29:00,
2013-05-03 19:34:00,61.0,28.5,30.03,NNW,330,2.0,8.0,29,0.00,,---,0.01,VWS V14.01,2013-05-04 00:34:00,
2013-05-03 19:39:00,60.7,29.1,30.03,NW,308,4.0,8.0,30,0.00,,---,0.01,VWS V14.01,2013-05-04 00:39:00,
2013-05-03 19:44:00,60.4,28.9,30.03,NW,304,3.0,8.0,30,0.00,,---,0.01,VWS V14.01,2013-05-04 00:44:00,
2013-05-03 19:49:00,60.1,29.4,30.03,NW,314,1.0,8.0,31,0.00,,---,0.01,VWS V14.01,2013-05-04 00:49:00,
2013-05-03 19:54:00,59.8,29.1,30.03,NW,311,0.0,8.0,31,0.00,,---,0.01,VWS V14.01,2013-05-04 00:54:00,
2013-05-03 19:59:00,59.4,29.6,30.03,NW,311,1.0,8.0,32,0.00,,---,0.01,VWS V14.01,2013-05-04 00:59:00,
2013-05-03 20:04:00,59.1,30.0,30.03,WNW,294,1.0,2.0,33,0.00,,---,0.01,VWS V14.01,2013-05-04 01:04:00,
2013-05-03 20:09:00,58.7,28.9,30.03,NW,311,1.0,3.0,32,0.00,,---,0.01,VWS V14.01,2013-05-04 01:09:00,
2013-05-03 20:14:00,58.4,29.4,30.03,NW,312,0.0,3.0,33,0.00,,---,0.01,VWS V14.01,2013-05-04 01:14:00,
2013-05-03 20:19:00,58.1,29.2,30.03,NW,311,0.0,3.0,33,0.00,,---,0.01,VWS V14.01,2013-05-04 01:19:00,
2013-05-03 20:24:00,57.7,29.5,30.03,NW,309,0.0,3.0,34,0.00,,---,0.01,VWS V14.01,2013-05-04 01:24:00,
2013-05-03 20:29:00,57.3,29.2,30.03,NW,309,0.0,3.0,34,0.00,,---,0.01,VWS V14.01,2013-05-04 01:29:00,
2013-05-03 20:34:00,56.9,30.2,30.03,NW,309,0.0,0.0,36,0.00,,---,0.01,VWS V14.01,2013-05-04 01:34:00,
2013-05-03 20:39:00,56.3,32.3,30.03,NW,309,0.0,0.0,40,0.00,,---,0.01,VWS V14.01,2013-05-04 01:39:00,
2013-05-03 20:44:00,55.5,35.6,30.03,NW,309,0.0,0.0,47,0.00,,---,0.01,VWS V14.01,2013-05-04 01:44:00,
2013-05-03 20:49:00,54.7,32.7,30.03,NW,309,0.0,0.0,43,0.00,,---,0.01,VWS V14.01,2013-05-04 01:49:00,
2013-05-03 20:54:00,54.1,32.1,30.03,NW,309,0.0,0.0,43,0.00,,---,0.01,VWS V14.01,2013-05-04 01:54:00,
2013-05-03 20:59:00,53.7,32.3,30.03,NW,309,0.0,0.0,44,0.00,,---,0.01,VWS V14.01,2013-05-04 01:59:00,
2013-05-03 21:04:00,53.4,37.2,30.03,NW,309,0.0,0.0,54,0.00,,---,0.01,VWS V14.01,2013-05-04 02:04:00,
2013-05-03 21:09:00,52.8,39.7,30.03,NW,309,0.0,0.0,61,0.00,,---,0.01,VWS V14.01,2013-05-04 02:09:00,
2013-05-03 21:14:00,52.3,39.3,30.03,NW,309,0.0,0.0,61,0.00,,---,0.01,VWS V14.01,2013-05-04 02:14:00,
2013-05-03 21:19:00,51.8,35.2,30.03,NW,309,0.0,0.0,53,0.00,,---,0.01,VWS V14.01,2013-05-04 02:19:00,
2013-05-03 21:24:00,51.6,37.8,30.03,NW,309,0.0,0.0,59,0.00,,---,0.01,VWS V14.01,2013-05-04 02:24:00,
2013-05-03 21:29:00,51.3,37.9,30.03,NW,309,0.0,0.0,60,0.00,,---,0.01,VWS V14.01,2013-05-04 02:29:00,
2013-05-03 21:34:00,51.0,37.2,30.03,NW,309,0.0,0.0,59,0.00,,---,0.01,VWS V14.01,2013-05-04 02:34:00,
2013-05-03 21:39:00,50.6,38.9,30.03,NW,309,0.0,0.0,64,0.00,,---,0.01,VWS V14.01,2013-05-04 02:39:00,
2013-05-03 21:44:00,50.1,38.0,30.03,NW,309,0.0,0.0,63,0.00,,---,0.01,VWS V14.01,2013-05-04 02:44:00,
2013-05-03 21:49:00,49.9,37.4,30.03,NW,309,0.0,0.0,62,0.00,,---,0.01,VWS V14.01,2013-05-04 02:49:00,
2013-05-03 21:54:00,49.7,37.6,30.03,NW,309,0.0,0.0,63,0.00,,---,0.01,VWS V14.01,2013-05-04 02:54:00,
2013-05-03 21:59:00,49.4,36.1,30.03,NW,309,0.0,0.0,60,0.00,,---,0.01,VWS V14.01,2013-05-04 02:59:00,
2013-05-03 22:04:00,49.1,32.7,30.03,NW,309,0.0,0.0,53,0.00,,---,0.01,VWS V14.01,2013-05-04 03:04:00,
2013-05-03 22:09:00,49.5,32.1,30.03,NW,309,0.0,0.0,51,0.00,,---,0.01,VWS V14.01,2013-05-04 03:09:00,
2013-05-03 22:14:00,49.9,31.5,30.03,NW,309,0.0,0.0,49,0.00,,---,0.01,VWS V14.01,2013-05-04 03:14:00,
2013-05-03 22:19:00,50.3,30.9,30.03,NW,309,0.0,0.0,47,0.00,,---,0.01,VWS V14.01,2013-05-04 03:19:00,
2013-05-03 22:24:00,50.4,33.0,30.03,NW,309,0.0,0.0,51,0.00,,---,0.01,VWS V14.01,2013-05-04 03:24:00,
2013-05-03 22:29:00,50.0,34.5,30.03,NW,309,0.0,0.0,55,0.00,,---,0.01,VWS V14.01,2013-05-04 03:29:00,
2013-05-03 22:34:00,49.6,33.7,30.03,NW,309,0.0,0.0,54,0.00,,---,0.01,VWS V14.01,2013-05-04 03:34:00,
2013-05-03 22:39:00,49.2,39.1,30.03,NW,309,0.0,0.0,68,0.00,,---,0.01,VWS V14.01,2013-05-04 03:39:00,
2013-05-03 22:44:00,48.5,39.9,30.03,NW,309,0.0,0.0,72,0.00,,---,0.01,VWS V14.01,2013-05-04 03:44:00,
2013-05-03 22:49:00,47.9,39.7,30.02,NW,309,0.0,0.0,73,0.00,,---,0.01,VWS V14.01,2013-05-04 03:49:00,
2013-05-03 22:54:00,47.7,39.1,30.02,NW,309,0.0,0.0,72,0.00,,---,0.01,VWS V14.01,2013-05-04 03:54:00,
2013-05-03 22:59:00,47.7,37.7,30.02,NW,309,0.0,0.0,68,0.00,,---,0.01,VWS V14.01,2013-05-04 03:59:00,
2013-05-03 23:01:00,47.7,37.3,30.02,NW,309,0.0,0.0,67,0.00,,---,0.01,VWS V14.01,2013-05-04 04:01:00,
2013-05-03 23:06:00,48.1,38.4,30.02,NW,309,0.0,0.0,69,0.00,,---,0.01,VWS V14.01,2013-05-04 04:06:00,
2013-05-03 23:11:00,48.1,38.0,30.02,NW,309,0.0,0.0,68,0.00,,---,0.01,VWS V14.01,2013-05-04 04:11:00,
2013-05-03 23:16:00,48.1,39.2,30.02,NW,309,0.0,0.0,71,0.00,,---,0.01,VWS V14.01,2013-05-04 04:16:00,
2013-05-03 23:21:00,47.6,40.1,30.02,NW,309,0.0,0.0,75,0.00,,---,0.01,VWS V14.01,2013-05-04 04:21:00,
2013-05-03 23:26:00,47.2,40.0,30.02,NW,309,0.0,0.0,76,0.00,,---,0.01,VWS V14.01,2013-05-04 04:26:00,
2013-05-03 23:31:00,47.1,40.3,30.02,NW,309,0.0,0.0,77,0.00,,---,0.01,VWS V14.01,2013-05-04 04:31:00,
2013-05-03 23:36:00,47.0,40.5,30.02,NW,309,0.0,0.0,78,0.00,,---,0.01,VWS V14.01,2013-05-04 04:36:00,
2013-05-03 23:41:00,47.1,41.6,30.01,NW,309,0.0,0.0,81,0.00,,---,0.01,VWS V14.01,2013-05-04 04:41:00,
2013-05-03 23:46:00,47.2,42.3,30.01,WNW,299,0.0,0.0,83,0.00,,---,0.01,VWS V14.01,2013-05-04 04:46:00,
2013-05-03 23:51:00,47.4,42.5,30.01,West,281,0.0,0.0,83,0.00,,---,0.01,VWS V14.01,2013-05-04 04:51:00,
2013-05-03 23:56:00,47.5,42.9,30.01,WSW,243,0.0,1.0,84,0.00,,---,0.01,VWS V14.01,2013-05-04 04:56:00,